Ottawa International, Ontario

5:17 PM EDT on August 28, 2016 (GMT -0400)
Ottawa-Macdonald-Cartier International

Weather History for CYOW - January, 2013

Change the Weather History Date:

Saturday, January 12, 2013

  Actual Average Record
Temperature  
Mean Temperature 37 °F -  
Max Temperature 43 °F 22 °F 43 °F (2013)
Min Temperature 31 °F 5 °F -4 °F (1999)
Degree Days  
Heating Degree Days 28    
Moisture  
Dew Point 37 °F    
Average Humidity 95    
Maximum Humidity 100    
Minimum Humidity 81    
Precipitation  
Precipitation 0.00 in 0.08 in - ()
Sea Level Pressure  
Sea Level Pressure 29.98 in    
Wind  
Wind Speed 5 mph ()    
Max Wind Speed 8 mph    
Max Gust Speed -    
Visibility 6.0 miles    
Events Fog , Rain    
Averages and records for this station are not official NWS values.
T = Trace of Precipitation, MM = Missing Value Source: Averaged Metar Reports

Daily Weather History Graph

Daily Weather History Graph

Search for Another Location

Airport or City:

Trip Planner

Search our weather history database for the weather conditions in past years. The results will help you decide how hot, cold, wet, or windy it might be!

Date:

Astronomy

Jan. 12, 2013 Rise Set
Actual Time 7:39 AM EST 4:42 PM EST
Civil Twilight 7:06 AM EST 5:16 PM EST
Nautical Twilight 6:29 AM EST 5:52 PM EST
Astronomical Twilight 5:54 AM EST 6:28 PM EST
Moon 7:52 AM EST (1/12) 6:14 PM EST (1/12)
Length of Visible Light 10h 09m
Length of Day
9h 03m
New Moon, 1% of the Moon is Illuminated
Jan 12
New Moon
Jan 18
First Quarter
Jan 26
Full
Feb 3
Last Quarter
Feb 10
New

Hourly Weather History & Observations

Time (EST) Temp. Windchill Dew Point Humidity Pressure Visibility Wind Dir Wind Speed Gust Speed Precip Events Conditions
12:00 AM 32.0 °F 25.6 °F 32.0 °F 100% 29.99 in 1.8 mi ESE 6.9 mph - N/A Rain Light Rain
1:00 AM 34 °F - 33 °F 95% 29.99 in 1 mi SE 5.8 mph - - Rain Light Rain
1:00 AM 33.8 °F 28.6 °F 33.8 °F 100% 29.99 in 1.0 mi SE 5.8 mph - N/A   Mist
1:32 AM 33.8 °F 28.6 °F 33.8 °F 100% 29.99 in 0.5 mi ESE 5.8 mph - N/A Fog Fog
2:00 AM 33.8 °F 28.6 °F 33.8 °F 100% 29.98 in 0.5 mi East 5.8 mph - N/A Fog Fog
3:00 AM 33.8 °F 28.6 °F 33.8 °F 100% 29.99 in 0.5 mi SE 5.8 mph - N/A Fog Fog
3:18 AM 33.8 °F 29.6 °F 33.8 °F 100% 29.99 in 1.0 mi SE 4.6 mph - N/A   Mist
4:00 AM 35.6 °F 29.2 °F 33.8 °F 93% 30.00 in 1.5 mi SSE 8.1 mph - N/A   Mist
5:00 AM 35.6 °F 30.7 °F 35.6 °F 100% 29.99 in 3.0 mi South 5.8 mph - N/A   Overcast
6:00 AM 35.6 °F 31.7 °F 33.8 °F 93% 30.00 in 1.5 mi ESE 4.6 mph - N/A   Overcast
7:00 AM 35 °F - 35 °F 100% 29.99 in 2 mi SE 8.1 mph - -   Mist
7:00 AM 35.6 °F 29.2 °F 35.6 °F 100% 29.99 in 2.0 mi SE 8.1 mph - N/A   Overcast
8:00 AM 35.6 °F 31.7 °F 33.8 °F 93% 30.01 in 1.5 mi ESE 4.6 mph - N/A   Overcast
8:35 AM 33.8 °F 29.6 °F 33.8 °F 100% 30.01 in 0.8 mi East 4.6 mph - N/A   Overcast
9:00 AM 33.8 °F 29.6 °F 33.8 °F 100% 30.01 in 0.8 mi ESE 4.6 mph - N/A   Overcast
10:00 AM 37.4 °F 31.4 °F 37.4 °F 100% 30.00 in 2.0 mi SSE 8.1 mph - N/A   Overcast
10:47 AM 39.2 °F 35.9 °F 39.2 °F 100% 30.00 in 4.0 mi South 4.6 mph - N/A   Overcast
11:00 AM 39.2 °F 35.0 °F 39.2 °F 100% 29.99 in 5.0 mi South 5.8 mph - N/A   Overcast
12:00 PM 41.0 °F 37.1 °F 39.2 °F 93% 29.98 in 6.0 mi SSW 5.8 mph - N/A   Overcast
1:00 PM 43 °F - 40 °F 85% 29.95 in 10 mi South 8.1 mph - -   Overcast
1:00 PM 42.8 °F 38.0 °F 39.2 °F 87% 29.94 in 10.0 mi South 8.1 mph - N/A   Overcast
2:00 PM 44.6 °F 40.2 °F 39.2 °F 81% 29.95 in 10.0 mi South 8.1 mph - N/A   Overcast
3:00 PM 42.8 °F 38.6 °F 39.2 °F 87% 29.95 in 10.0 mi South 6.9 mph - N/A   Overcast
4:00 PM 42.8 °F 41.1 °F 39.2 °F 87% 29.95 in 12.0 mi South 3.5 mph - N/A   Overcast
5:00 PM 42.8 °F 39.3 °F 39.2 °F 87% 29.95 in 12.0 mi South 5.8 mph - N/A   Overcast
6:00 PM 42.8 °F 38.6 °F 39.2 °F 87% 29.96 in 12.0 mi South 6.9 mph - N/A   Overcast
7:00 PM 42 °F - 40 °F 88% 29.97 in 15 mi South 5.8 mph - -   Mostly Cloudy
7:00 PM 42.8 °F 39.3 °F 39.2 °F 87% 29.97 in 15.0 mi South 5.8 mph - N/A   Mostly Cloudy
8:00 PM 41.0 °F 37.1 °F 39.2 °F 93% 29.98 in 15.0 mi SE 5.8 mph - N/A   Scattered Clouds
9:00 PM 41.0 °F 36.4 °F 39.2 °F 93% 29.99 in 12.0 mi SSE 6.9 mph - N/A   Scattered Clouds
10:00 PM 39.2 °F - 39.2 °F 100% 29.99 in 12.0 mi South 2.3 mph - N/A   Mostly Cloudy
11:00 PM 39.2 °F 35.9 °F 39.2 °F 100% 29.99 in 8.0 mi South 4.6 mph - N/A Fog Shallow Fog
11:36 PM 35.6 °F 32.8 °F 33.8 °F 93% 30.00 in 8.0 mi SSE 3.5 mph - N/A Fog Shallow Fog